Stations météo

réclame
Mon MeteoGroup
Palma De Mallorca/Son San Ju, Espagne (8306): Température de l'air & dewpoint: 13.12.2018 15:00:00 - 19.12.2018 15:00:00 (CET)Palma De Mallorca/Son San Ju, Espagne (8306): Vitesse du vent: 13.12.2018 15:00:00 - 19.12.2018 15:00:00 (CET)Palma De Mallorca/Son San Ju, Espagne (8306): Direction du vent: 13.12.2018 15:00:00 - 19.12.2018 15:00:00 (CET)Palma De Mallorca/Son San Ju, Espagne (8306): reduced air pressure: 13.12.2018 15:00:00 - 19.12.2018 15:00:00 (CET)Palma De Mallorca/Son San Ju, Espagne (8306): visibility: 13.12.2018 15:00:00 - 19.12.2018 15:00:00 (CET)
Date & Time tt [°C] td [°C] ff [km/h] ff [knt] dd ppp [hPa] vv [km]
19.12.2018 15:00:00 - - - - - - -
19.12.2018 14:00:00 17,8 11,8 28 15 WSW 1019,4 10
19.12.2018 13:00:00 17,9 12,3 29 16 WSW 1020,1 25
19.12.2018 12:00:00 16,6 12,7 26 14 SW 1021,0 10
19.12.2018 11:00:00 16,4 13,1 21 11 WSW 1021,6 10
19.12.2018 10:00:00 13,9 13,6 15 8 WSW 1021,4 10
19.12.2018 09:00:00 8,4 8,3 5 3 ESE 1021,1 10
19.12.2018 08:00:00 7,0 6,9 8 4 N 1021,1 10
19.12.2018 07:00:00 7,3 7,2 4 2 - 1020,9 10
19.12.2018 06:00:00 5,9 5,8 5 3 NNE 1020,6 10
19.12.2018 05:00:00 5,8 5,7 2 1 N 1021,2 10
19.12.2018 04:00:00 3,8 3,5 8 4 ENE 1021,2 10
19.12.2018 03:00:00 4,1 3,8 4 2 - 1021,7 10
19.12.2018 02:00:00 4,9 4,6 4 2 - 1021,8 10
19.12.2018 01:00:00 4,5 4,1 4 2 ENE 1022,5 10
19.12.2018 00:00:00 5,7 5,3 4 2 - 1022,9 10
18.12.2018 23:00:00 6,9 6,3 2 1 - 1023,3 10
18.12.2018 22:00:00 7,3 6,6 5 3 E 1023,6 10
18.12.2018 21:00:00 8,1 7,0 5 3 N 1023,9 10
18.12.2018 20:00:00 8,9 7,5 5 3 NE 1023,9 10
18.12.2018 19:00:00 9,7 7,8 4 2 - 1024,0 10
18.12.2018 18:00:00 11,3 7,9 4 2 SE 1024,1 10
18.12.2018 17:00:00 13,7 8,3 4 2 - 1023,8 10
18.12.2018 16:00:00 14,8 8,1 9 5 SSW 1024,0 10
18.12.2018 15:00:00 15,5 7,7 13 7 SW 1024,4 10
18.12.2018 14:00:00 15,5 8,2 13 7 SW 1024,8 10
18.12.2018 13:00:00 15,6 7,4 9 5 SW 1025,4 10
18.12.2018 12:00:00 15,3 9,2 0 0 N 1026,6 10
18.12.2018 11:00:00 10,5 8,5 4 2 - 1027,3 10
18.12.2018 10:00:00 8,2 6,7 0 0 N 1027,5 10
18.12.2018 09:00:00 4,7 4,3 2 1 - 1027,6 10
18.12.2018 08:00:00 2,9 2,6 4 2 NNE 1027,8 10
18.12.2018 07:00:00 2,3 1,9 5 3 NE 1027,5 10
18.12.2018 06:00:00 2,6 2,2 4 2 NNE 1027,9 10
18.12.2018 05:00:00 3,9 3,5 0 0 N 1027,8 10
18.12.2018 04:00:00 3,7 3,1 0 0 N 1028,2 10
18.12.2018 03:00:00 3,5 3,1 2 1 - 1029,0 10
18.12.2018 02:00:00 3,4 2,8 5 3 NNE 1029,5 10
18.12.2018 01:00:00 3,9 3,3 8 4 ENE 1029,9 10
18.12.2018 00:00:00 5,0 4,4 5 3 ESE 1030,0 10
17.12.2018 23:00:00 4,8 4,1 0 0 N 1030,1 10
17.12.2018 22:00:00 5,2 4,0 5 3 ENE 1030,0 10
17.12.2018 21:00:00 6,5 5,1 2 1 - 1030,3 10
17.12.2018 20:00:00 7,8 5,8 5 3 E 1029,5 10
17.12.2018 19:00:00 9,0 6,1 8 4 N 1029,1 28
17.12.2018 18:00:00 10,3 6,6 5 3 ENE 1028,5 10
17.12.2018 17:00:00 12,8 7,2 11 6 NNW 1027,7 10
17.12.2018 16:00:00 15,3 7,0 15 8 NW 1027,5 30
17.12.2018 15:00:00 14,7 6,3 26 14 NNW 1026,9 10
17.12.2018 14:00:00 15,7 6,9 24 13 NNW 1026,8 10
17.12.2018 13:00:00 15,8 6,4 18 10 NW 1027,2 10
17.12.2018 12:00:00 15,4 6,1 22 12 NW 1027,1 10
17.12.2018 11:00:00 15,4 5,3 24 13 N 1027,6 10
17.12.2018 10:00:00 15,0 5,7 21 11 NW 1027,1 10
17.12.2018 09:00:00 13,7 4,9 26 14 NNW 1025,8 10
17.12.2018 08:00:00 13,3 4,7 21 11 NW 1025,0 10
17.12.2018 07:00:00 13,3 4,4 16 9 NW 1024,1 25
17.12.2018 06:00:00 13,8 3,6 35 19 NW 1022,9 10
17.12.2018 05:00:00 14,0 4,3 34 18 NW 1023,2 10
17.12.2018 04:00:00 14,2 4,5 22 12 NNW 1022,5 25
17.12.2018 03:00:00 14,8 5,3 24 13 NW 1022,1 10
17.12.2018 02:00:00 15,0 5,2 26 14 NNW 1021,1 10
17.12.2018 01:00:00 15,7 8,0 22 12 NW 1020,6 10
17.12.2018 00:00:00 15,4 9,5 11 6 NW 1020,4 10
16.12.2018 23:00:00 15,9 9,8 16 9 NW 1019,5 10
16.12.2018 22:00:00 16,1 10,2 16 9 W 1018,8 10
16.12.2018 21:00:00 16,9 9,4 16 9 W 1018,8 10
16.12.2018 20:00:00 16,8 10,4 22 12 W 1018,3 10
16.12.2018 19:00:00 16,2 11,0 21 11 W 1017,9 10
16.12.2018 18:00:00 16,1 11,0 29 16 WSW 1017,0 10
16.12.2018 17:00:00 16,7 9,9 13 7 W 1016,8 10
16.12.2018 16:00:00 16,6 10,5 18 10 W 1016,7 10
16.12.2018 15:00:00 17,8 10,9 34 18 W 1016,2 10
16.12.2018 14:00:00 17,7 10,3 39 21 W 1017,2 10
16.12.2018 13:00:00 18,1 10,3 29 16 WSW 1017,5 25
16.12.2018 12:00:00 17,8 11,9 31 17 WSW 1018,2 10
16.12.2018 11:00:00 16,9 12,0 24 13 WSW 1018,8 10
16.12.2018 10:00:00 16,2 12,0 22 12 WSW 1018,4 20
16.12.2018 09:00:00 14,7 10,6 15 8 SW 1018,3 10
16.12.2018 08:00:00 13,3 9,1 13 7 SW 1018,2 10
16.12.2018 07:00:00 13,7 9,5 11 6 SSE 1018,2 10
16.12.2018 06:00:00 13,6 10,2 16 9 SW 1018,4 10
16.12.2018 05:00:00 15,3 10,8 22 12 WSW 1018,5 10
16.12.2018 04:00:00 14,2 11,7 15 8 WSW 1019,0 10
16.12.2018 03:00:00 13,4 13,2 16 9 SW 1019,4 10
16.12.2018 02:00:00 8,6 8,2 5 3 NE 1019,8 10
16.12.2018 01:00:00 8,7 7,9 2 1 NNE 1020,4 10
16.12.2018 00:00:00 9,3 8,5 5 3 NE 1021,3 10
15.12.2018 23:00:00 10,5 9,3 4 2 - 1021,6 10
15.12.2018 22:00:00 12,8 10,2 13 7 WSW 1021,9 10
15.12.2018 21:00:00 13,3 10,3 8 4 SW 1022,3 10
15.12.2018 20:00:00 14,1 9,7 9 5 WSW 1022,4 10
15.12.2018 19:00:00 13,5 9,9 13 7 WSW 1021,8 10
15.12.2018 18:00:00 14,1 8,9 15 8 WSW 1022,0 10
15.12.2018 17:00:00 14,4 9,2 16 9 WSW 1021,9 10
15.12.2018 16:00:00 15,0 8,7 21 11 WSW 1021,9 10
15.12.2018 15:00:00 16,2 9,7 26 14 WSW 1021,7 10
15.12.2018 14:00:00 16,5 8,9 24 13 WSW 1022,0 10
15.12.2018 13:00:00 16,8 8,3 22 12 WSW 1022,4 30
15.12.2018 12:00:00 16,9 6,2 15 8 WNW 1023,0 10
15.12.2018 11:00:00 16,2 7,9 15 8 W 1023,2 10
15.12.2018 10:00:00 14,6 8,4 9 5 WSW 1023,2 10
15.12.2018 09:00:00 11,9 6,8 11 6 W 1022,6 10
15.12.2018 08:00:00 10,0 5,9 15 8 W 1022,1 10
15.12.2018 07:00:00 10,5 5,7 13 7 WSW 1021,3 10
15.12.2018 06:00:00 12,2 4,7 13 7 WNW 1021,0 10
15.12.2018 05:00:00 9,6 6,1 8 4 SW 1021,5 10
15.12.2018 04:00:00 11,1 7,0 21 11 WNW 1021,2 10
15.12.2018 03:00:00 11,4 7,7 9 5 W 1021,5 10
15.12.2018 02:00:00 8,4 8,0 13 7 W 1021,0 10
15.12.2018 01:00:00 6,6 6,3 4 2 N 1021,0 10
15.12.2018 00:00:00 6,8 6,4 4 2 - 1021,2 10
14.12.2018 23:00:00 6,6 6,2 4 2 ENE 1020,7 10
14.12.2018 22:00:00 7,1 6,5 0 0 N 1020,6 10
14.12.2018 21:00:00 7,6 6,7 5 3 NE 1020,1 10
14.12.2018 20:00:00 9,2 7,6 4 2 E 1019,8 10
14.12.2018 19:00:00 11,7 7,6 5 3 SSE 1019,0 10
14.12.2018 18:00:00 12,3 8,2 2 1 - 1018,2 10
14.12.2018 17:00:00 13,6 7,6 2 1 - 1017,3 10
14.12.2018 16:00:00 14,2 6,3 8 4 N 1016,4 25
14.12.2018 15:00:00 14,9 6,9 18 10 NNE 1015,3 10
14.12.2018 14:00:00 15,3 6,7 29 16 NNE 1014,7 10
14.12.2018 13:00:00 14,3 6,9 21 11 NNE 1014,2 10
14.12.2018 12:00:00 14,1 9,5 18 10 NNE 1013,6 10
14.12.2018 11:00:00 13,3 9,3 24 13 NNE 1012,7 10
14.12.2018 10:00:00 13,1 9,5 18 10 NNE 1010,9 10
14.12.2018 09:00:00 12,1 10,0 18 10 NNE 1009,4 10
14.12.2018 08:00:00 12,2 9,9 15 8 NNE 1007,6 10
14.12.2018 07:00:00 10,7 10,2 4 2 - 1005,9 10
14.12.2018 06:00:00 10,6 9,8 8 4 NE 1004,5 10
14.12.2018 05:00:00 10,7 9,6 9 5 W 1004,7 10
14.12.2018 04:00:00 10,1 9,6 2 1 - 1004,8 10
14.12.2018 03:00:00 10,1 9,5 0 0 N 1004,7 10
14.12.2018 02:00:00 10,4 9,6 8 4 W 1005,0 10
14.12.2018 01:00:00 10,8 10,2 4 2 NNW 1004,5 14
14.12.2018 00:00:00 11,4 10,3 13 7 W 1004,3 10
13.12.2018 23:00:00 11,9 10,6 13 7 WSW 1003,8 10
13.12.2018 22:00:00 12,1 11,2 15 8 WSW 1003,4 10
13.12.2018 21:00:00 12,2 11,7 8 4 SW 1003,2 10
13.12.2018 20:00:00 12,1 11,5 21 11 WSW 1003,0 10
13.12.2018 19:00:00 12,6 11,0 8 4 W 1003,4 10
13.12.2018 18:00:00 12,9 10,8 15 8 W 1003,1 10
13.12.2018 17:00:00 13,1 11,3 26 14 W 1004,5 9
13.12.2018 16:00:00 14,4 10,1 34 18 W 1004,7 10
13.12.2018 15:00:00 13,8 11,1 11 6 WNW 1004,5 10

tt = Température de l'air
td = dewpoint
ff = Vitesse du vent
dd = Direction du vent
ppp = reduced air pressure
vv = visibility

stations d'obs. à proximité